Weather in Essoyla

Russia / Republic of Karelia     61°50′49″N   33°12′40″E
temp.,
°C
wind,
m/s
gust,
m/s
humid.,
%
clouds,
%
prec.,
mm/h
press.,
hPa
HPBL,
m
3 march, wed
wed300:00−6w39930 0.0 1012233
03:00−5w3109510 0.0 1012363
06:00−4w4129486 0.0 1010474
09:00−4w4119179 0.0 1009542
12:00−1w499155 0.0 1006467
15:00−1w598978 0.0 1004747
18:00−1w41095100 0.2 1000956
21:00−2wnw51281100 2.9 999961
4 march, thu
thu400:00−4nw4119180 0.0 999647
03:00−7nw399383 0.0 1001332
06:00−10nw229786 0.0 100141
09:00−10nnw239685 0.1 100287
12:00−6nnw239085 0.0 1002328
15:00−5nw248693 0.0 1003619
18:00−7nw229298 0.1 100221
21:00−9nw259598 0.1 1003140
5 march, fri
fri500:00−12nw229686 0.0 100421
03:00−13nw229770 0.1 100561
06:00−11nnw269696 0.3 1006223
09:00−11n279498 0.4 1008358
12:00−9n237972 0.0 1010493
15:00−7nw247660 0.0 1011833
18:00−9wnw248998 0.0 101293
21:00−12wnw239582 0.0 101358
6 march, sat
sat600:00−14wnw239645 0.0 101367
03:00−15w239627 0.0 101339
06:00−15wsw23971 0.0 101327
09:00−13sw269611 0.0 1011178
12:00−7sw488783 0.0 1008669
15:00−7ssw5108992 0.1 1003730
18:00−6ssw61293100 0.7 9971070
21:00−5ssw61392100 2.0 991943
7 march, sun
sun700:00−4ssw41096100 1.1 986464
03:00−4ssw2597100 1.4 981212
06:00−3se3797100 0.7 978352
09:00−7w3694100 2.9 978310
12:00−5ne61294100 2.5 981794
15:00−7nne81487100 3.2 985990
18:00−10nne71586100 0.1 9901018
21:00−14n71585100 0.3 995857